Weather History for CXVN - November, 2013

Change the Weather History Date:

Saturday, November 30, 2013

  Actual Average Record
Temperature  
Mean Temperature 27 °F -  
Max Temperature 38 °F - - ()
Min Temperature 16 °F - - ()
Degree Days  
Heating Degree Days 38    
Moisture  
Dew Point 19 °F    
Average Humidity 67    
Maximum Humidity 82    
Minimum Humidity 47    
Precipitation  
Precipitation 0.13 in - - ()
Sea Level Pressure  
Sea Level Pressure 30.41 in    
Wind  
Wind Speed 4 mph ()    
Max Wind Speed 15 mph    
Max Gust Speed 22 mph    
T = Trace of Precipitation, MM = Missing Value Source: Averaged Metar Reports

Daily Weather History Graph

Daily Weather History Graph

Search for Another Location

Airport or City:

Trip Planner

Search our weather history database for the weather conditions in past years. The results will help you decide how hot, cold, wet, or windy it might be!

Date:

Astronomy

Nov. 30, 2013 Rise Set
Actual Time 7:28 AM EST 4:43 PM EST
Civil Twilight 6:57 AM EST 5:15 PM EST
Nautical Twilight 6:21 AM EST 5:50 PM EST
Astronomical Twilight 5:47 AM EST 6:25 PM EST
Moon 4:34 AM EST (11/30) 3:09 PM EST (11/30)
Length of Visible Light 10h 18m
Length of Day
9h 14m
Waning Crescent, 7% of the Moon is Illuminated
Nov 30
Waning Crescent
Dec 2
New
Dec 9
First Quarter
Dec 17
Full
Dec 25
Last Quarter

Hourly Weather History & Observations

Time (EST) Temp. Windchill Dew Point Humidity Pressure Visibility Wind Dir Wind Speed Gust Speed Precip Events Conditions
12:00 AM 17.8 °F 12.5 °F 12.2 °F 79% 30.68 in - SSE 3.5 mph - N/A   Unknown
1:00 AM 18 °F - 12 °F 69% 30.66 in - SE 3.5 mph - -  
1:00 AM 18.1 °F 12.9 °F 12.2 °F 78% 30.66 in - SE 3.5 mph - N/A   Unknown
2:00 AM 17.1 °F 11.7 °F 12.6 °F 82% 30.66 in - South 3.5 mph - N/A   Unknown
3:00 AM 19.6 °F 11.7 °F 13.5 °F 77% 30.65 in - SSE 5.8 mph - N/A   Unknown
4:00 AM 19.0 °F 12.3 °F 13.1 °F 78% 30.63 in - SSE 4.6 mph - N/A   Unknown
5:00 AM 18.3 °F 11.5 °F 12.7 °F 79% 30.61 in - South 4.6 mph - N/A   Unknown
6:00 AM 19.2 °F 12.5 °F 12.6 °F 75% 30.59 in - SSE 4.6 mph - N/A   Unknown
7:00 AM 20 °F - 12 °F 61% 30.56 in - SSE 4.6 mph - -  
7:00 AM 20.5 °F 14.0 °F 12.4 °F 71% 30.56 in - SSE 4.6 mph - N/A   Unknown
8:00 AM 21.2 °F 14.9 °F 12.4 °F 69% 30.54 in - SE 4.6 mph - N/A   Unknown
9:00 AM 25.2 °F 19.5 °F 15.4 °F 67% 30.50 in - SSE 4.6 mph - N/A   Unknown
10:00 AM 28.8 °F 23.7 °F 18.3 °F 65% 30.45 in - SE 4.6 mph - N/A   Unknown
11:00 AM 31.1 °F 27.7 °F 19.4 °F 62% 30.44 in - SSE 3.5 mph - N/A   Unknown
12:00 PM 31.6 °F 28.3 °F 20.7 °F 64% 30.40 in - SSE 3.5 mph - N/A   Unknown
1:00 PM 35 °F - 22 °F 47% 30.35 in - South 4.6 mph - -  
1:00 PM 34.7 °F 30.6 °F 22.1 °F 60% 30.35 in - South 4.6 mph - N/A   Unknown
2:00 PM 36.1 °F 31.4 °F 24.3 °F 62% 30.30 in - SSW 5.8 mph - N/A   Unknown
3:00 PM 38.1 °F 32.9 °F 23.5 °F 56% 30.27 in - SSW 6.9 mph - N/A   Unknown
4:00 PM 36.7 °F 32.0 °F 23.0 °F 58% 30.24 in - South 5.8 mph - N/A   Unknown
5:00 PM 34.2 °F - 23.0 °F 64% 30.22 in - South 2.3 mph - N/A   Unknown
6:00 PM 34.2 °F 30.0 °F 23.4 °F 65% 30.21 in - South 4.6 mph - N/A   Unknown
7:00 PM 34 °F - 24 °F 55% 30.20 in - SSW 3.5 mph - -  
7:00 PM 34.2 °F 31.2 °F 23.9 °F 66% 30.20 in - SSW 3.5 mph - N/A   Unknown
8:00 PM 36.1 °F 32.3 °F 24.8 °F 63% 30.18 in - South 4.6 mph - N/A   Unknown
9:00 PM 37.0 °F 31.0 °F 26.1 °F 65% 30.15 in - SSW 8.1 mph - N/A   Unknown
10:00 PM 38.1 °F 29.5 °F 26.4 °F 63% 30.14 in - SW 15.0 mph 21.9 mph N/A   Unknown
11:00 PM 37.9 °F 29.6 °F 27.7 °F 67% 30.14 in - SW 13.8 mph 20.7 mph N/A   Unknown